GW5308 Weather Reports


Display with metric or nautical units.
time (UTC)temp
F
wind
direction
speed
MPH
gust
MPH
rain 1hr
in
rain 24hr
in
rain mn
in
humidity
%
barometer
mb
20260507040516 69 0 0.0 0.0 0.00 0.00 0.00 85 1015.4
20260507040033 69 0 0.0 0.0 0.00 0.00 0.00 85 1015.3
20260507035513 69 0 0.0 0.0 0.00 0.00 0.00 85 1015.2
20260507035014 69 0 0.0 0.0 0.00 0.00 0.00 85 1015.2
20260507034539 69 0 0.0 0.0 0.00 0.00 0.00 85 1015.3
20260507034018 69 0 0.0 0.0 0.00 0.00 0.00 85 1015.1
20260507033515 69 0 0.0 0.0 0.00 0.00 0.00 86 1015.1
20260507033041 69 0 0.0 0.0 0.00 0.00 0.00 85 1015.1
20260507032516 69 0 0.0 0.0 0.00 0.00 0.00 84 1015.3
20260507032016 69 0 0.0 0.0 0.00 0.00 0.00 83 1015.2
20260507031534 69 0 0.0 0.0 0.00 0.00 0.00 83 1015.3
20260507031016 69 0 0.0 0.0 0.00 0.00 0.00 82 1015.2
20260507030515 70 0 0.0 0.0 0.00 0.00 0.00 82 1015.2
20260507030037 70 0 0.0 0.0 0.00 0.00 0.00 81 1015.4
20260507025515 70 0 0.0 0.0 0.00 0.00 0.00 81 1015.3
20260507025018 71 0 0.0 0.0 0.00 0.00 0.00 79 1015.3
20260507024541 71 0 0.0 0.0 0.00 0.00 0.00 78 1015.4
20260507024013 72 0 0.0 0.0 0.00 0.00 0.00 78 1015.4
20260507023514 72 0 0.0 0.0 0.00 0.00 0.00 76 1015.3
20260507023032 72 0 0.0 0.0 0.00 0.00 0.00 75 1015.3
20260507022512 73 0 0.0 0.0 0.00 0.00 0.00 74 1015.2
20260507022015 74 0 0.0 0.0 0.00 0.00 0.00 73 1015.1
20260507021547 74 0 0.0 1.0 0.00 0.00 0.00 72 1015.2
20260507021011 75 0 0.0 1.0 0.00 0.00 0.00 71 1015.1
20260507020514 75 0 0.0 1.0 0.00 0.00 0.00 70 1015.1
20260507020034 76 254 0.0 1.0 0.00 0.00 0.00 70 1015.2
20260507015512 76 0 0.0 1.0 0.00 0.00 0.00 69 1015.1
20260507015014 76 0 0.0 1.0 0.00 0.00 0.00 68 1014.9
20260507014532 77 0 0.0 1.0 0.00 0.00 0.00 68 1014.9
20260507014017 77 0 0.0 2.0 0.00 0.00 0.00 67 1014.7
20260507013511 77 0 0.0 2.0 0.00 0.00 0.00 66 1014.6
20260507013035 77 252 0.0 3.0 0.00 0.00 0.00 66 1014.5
20260507012514 78 0 0.0 3.0 0.00 0.00 0.00 66 1014.5
20260507012013 78 0 0.0 3.0 0.00 0.00 0.00 66 1014.4
20260507011536 78 232 0.0 2.0 0.00 0.00 0.00 66 1014.3
20260507011014 78 258 0.0 5.0 0.00 0.00 0.00 66 1014.2
20260507010515 78 259 0.0 5.0 0.00 0.00 0.00 66 1014.2
20260507010042 78 76 0.0 5.0 0.00 0.00 0.00 66 1014.2
20260507005512 79 0 0.0 4.0 0.00 0.00 0.00 67 1014.1
20260507005017 79 250 0.0 4.0 0.00 0.00 0.00 68 1014.1
20260507004531 79 0 1.0 4.0 0.00 0.00 0.00 69 1014.3
20260507004014 79 0 0.0 1.0 0.00 0.00 0.00 71 1014.2
20260507003514 79 211 0.0 1.0 0.00 0.00 0.00 71 1014.2
20260507003031 80 293 0.0 2.0 0.00 0.00 0.00 70 1014.1
20260507002514 80 0 0.0 2.0 0.00 0.00 0.00 69 1013.9
20260507002015 80 304 0.0 2.0 0.00 0.00 0.00 69 1013.9
20260507001533 81 281 0.0 4.0 0.00 0.00 0.00 68 1014.0
20260507001015 81 253 0.0 4.0 0.00 0.00 0.00 68 1013.9
20260507000522 81 144 0.0 4.0 0.00 0.00 0.00 68 1013.8
20260507000035 82 265 0.0 2.0 0.00 0.00 0.00 67 1013.8
20260506235513 82 280 0.0 2.0 0.00 0.00 0.00 67 1013.8
20260506235016 82 30 1.0 3.0 0.00 0.00 0.00 66 1013.8
20260506234534 83 0 0.0 3.0 0.00 0.00 0.00 65 1013.9
20260506234013 83 311 1.0 3.0 0.00 0.00 0.00 65 1013.9
20260506233516 83 292 0.0 3.0 0.00 0.00 0.00 65 1013.8
20260506233032 84 340 0.0 2.0 0.00 0.00 0.00 64 1013.8
20260506232520 84 198 0.0 2.0 0.00 0.00 0.00 64 1013.9
20260506232015 85 300 0.0 3.0 0.00 0.00 0.00 63 1013.9
20260506231534 85 262 0.0 3.0 0.00 0.00 0.00 62 1013.8
20260506231014 85 29 1.0 5.0 0.00 0.00 0.00 62 1013.7
20260506230514 85 0 1.0 5.0 0.00 0.00 0.00 61 1013.6
20260506230035 86 345 1.0 5.0 0.00 0.00 0.00 61 1013.6
20260506225518 86 326 1.0 3.0 0.00 0.00 0.00 61 1013.4
20260506225015 86 0 0.0 4.0 0.00 0.00 0.00 61 1013.5
20260506224535 86 112 1.0 4.0 0.00 0.00 0.00 60 1013.5
20260506224016 86 320 2.0 4.0 0.00 0.00 0.00 59 1013.6
20260506223516 87 253 1.0 4.0 0.00 0.00 0.00 59 1013.6
20260506223032 88 354 1.0 6.0 0.00 0.00 0.00 58 1013.7
20260506222514 88 18 1.0 6.0 0.00 0.00 0.00 57 1013.5
20260506222016 89 304 1.0 5.0 0.00 0.00 0.00 57 1013.6
20260506221533 89 2 1.0 5.0 0.00 0.00 0.00 56 1013.7
20260506221016 89 337 1.0 6.0 0.00 0.00 0.00 57 1013.7
20260506220516 90 2 1.0 6.0 0.00 0.00 0.00 56 1013.7
20260506220036 91 47 2.0 6.0 0.00 0.00 0.00 55 1013.7
20260506215515 92 342 1.0 3.0 0.00 0.00 0.00 53 1013.7
20260506215014 93 270 1.0 3.0 0.00 0.00 0.00 48 1013.7
20260506214532 94 243 0.0 2.0 0.00 0.00 0.00 43 1013.7
20260506214015 93 242 0.0 2.0 0.00 0.00 0.00 44 1013.7
20260506213514 94 240 0.0 2.0 0.00 0.00 0.00 43 1013.7
20260506213034 93 0 0.0 2.0 0.00 0.00 0.00 44 1013.7
20260506212515 94 0 0.0 1.0 0.00 0.00 0.00 44 1013.8
20260506212020 94 289 0.0 1.0 0.00 0.00 0.00 43 1013.7
20260506211534 94 0 0.0 1.0 0.00 0.00 0.00 43 1013.7
20260506211015 94 243 0.0 3.0 0.00 0.00 0.00 44 1013.7
20260506210516 94 0 0.0 3.0 0.00 0.00 0.00 43 1013.7
20260506210037 94 214 0.0 2.0 0.00 0.00 0.00 44 1013.7
20260506205514 94 0 0.0 2.0 0.00 0.00 0.00 44 1013.7
20260506205016 94 253 0.0 2.0 0.00 0.00 0.00 42 1013.7
20260506204547 94 211 0.0 2.0 0.00 0.00 0.00 44 1013.7
20260506204017 93 163 0.0 1.0 0.00 0.00 0.00 44 1013.8
20260506203518 93 241 0.0 2.0 0.00 0.00 0.00 43 1013.8
20260506203034 93 242 0.0 2.0 0.00 0.00 0.00 45 1013.9
20260506202514 93 246 0.0 2.0 0.00 0.00 0.00 43 1013.9
20260506202014 93 0 0.0 2.0 0.00 0.00 0.00 44 1014.0
20260506201535 93 240 0.0 2.0 0.00 0.00 0.00 43 1014.0
20260506201014 93 0 0.0 2.0 0.00 0.00 0.00 41 1014.0
20260506200513 94 224 0.0 1.0 0.00 0.00 0.00 41 1013.9
20260506200034 93 245 0.0 2.0 0.00 0.00 0.00 43 1014.0
20260506195514 93 297 0.0 3.0 0.00 0.00 0.00 44 1014.0
20260506195019 93 320 0.0 3.0 0.00 0.00 0.00 43 1014.1
20260506194534 93 238 0.0 2.0 0.00 0.00 0.00 43 1014.1
20260506194014 93 216 0.0 3.0 0.00 0.00 0.00 44 1014.3
20260506193512 93 231 0.0 3.0 0.00 0.00 0.00 44 1014.4
20260506193031 93 42 1.0 4.0 0.00 0.00 0.00 44 1014.4
20260506192513 93 241 1.0 4.0 0.00 0.00 0.00 44 1014.4
20260506192014 93 0 1.0 4.0 0.00 0.00 0.00 41 1014.5
20260506191534 94 337 0.0 4.0 0.00 0.00 0.00 41 1014.7
20260506191012 93 0 0.0 4.0 0.00 0.00 0.00 43 1014.8
20260506190511 93 91 1.0 4.0 0.00 0.00 0.00 40 1014.9
20260506190033 93 40 0.0 4.0 0.00 0.00 0.00 44 1015.0
20260506185514 92 37 0.0 4.0 0.00 0.00 0.00 45 1015.1
20260506185014 93 15 1.0 3.0 0.00 0.00 0.00 43 1015.0
20260506184532 93 10 0.0 3.0 0.00 0.00 0.00 46 1015.2
20260506184014 93 60 1.0 4.0 0.00 0.00 0.00 45 1015.2
20260506183514 92 266 1.0 4.0 0.00 0.00 0.00 46 1015.2
20260506183030 92 209 1.0 3.0 0.00 0.00 0.00 45 1015.2
20260506182513 92 285 0.0 3.0 0.00 0.00 0.00 45 1015.3
20260506182016 91 262 0.0 5.0 0.00 0.00 0.00 50 1015.2
20260506181532 91 0 0.0 5.0 0.00 0.00 0.00 47 1015.3
20260506181014 91 224 1.0 3.0 0.00 0.00 0.00 47 1015.5
20260506180517 91 3 0.0 3.0 0.00 0.00 0.00 46 1015.5
20260506180032 91 242 0.0 4.0 0.00 0.00 0.00 48 1015.5
20260506175511 91 124 2.0 4.0 0.00 0.00 0.00 47 1015.5
20260506175010 90 248 0.0 4.0 0.00 0.00 0.00 50 1015.5
20260506174533 90 304 1.0 5.0 0.00 0.00 0.00 49 1015.8
20260506174017 91 117 1.0 5.0 0.00 0.00 0.00 50 1015.8
20260506173513 90 178 0.0 4.0 0.00 0.00 0.00 51 1015.7
20260506173032 90 31 1.0 4.0 0.00 0.00 0.00 51 1015.7
20260506172514 90 127 1.0 4.0 0.00 0.00 0.00 52 1015.7
20260506172014 90 0 0.0 4.0 0.00 0.00 0.00 53 1015.8
20260506171540 90 37 0.0 4.0 0.00 0.00 0.00 55 1015.8
20260506171015 89 234 0.0 4.0 0.00 0.00 0.00 55 1015.9
20260506170514 89 11 0.0 3.0 0.00 0.00 0.00 55 1016.0
20260506170043 89 0 1.0 3.0 0.00 0.00 0.00 55 1016.1
20260506165514 88 0 0.0 3.0 0.00 0.00 0.00 55 1016.2
20260506165014 88 257 1.0 3.0 0.00 0.00 0.00 56 1016.4
20260506164539 89 226 0.0 2.0 0.00 0.00 0.00 57 1016.4
20260506164014 88 215 0.0 2.0 0.00 0.00 0.00 55 1016.4
20260506163518 88 242 1.0 2.0 0.00 0.00 0.00 52 1016.6
20260506163033 88 0 0.0 2.0 0.00 0.00 0.00 56 1016.6
20260506162513 88 229 0.0 2.0 0.00 0.00 0.00 59 1016.7
20260506162019 87 221 0.0 4.0 0.00 0.00 0.00 59 1016.7
20260506161539 88 241 1.0 4.0 0.00 0.00 0.00 59 1016.7
20260506161016 88 0 0.0 2.0 0.00 0.00 0.00 58 1016.8
20260506160518 87 165 0.0 2.0 0.00 0.00 0.00 60 1016.8
20260506160042 87 234 0.0 2.0 0.00 0.00 0.00 61 1016.7
20260506155516 86 226 0.0 3.0 0.00 0.00 0.00 63 1016.7
20260506155014 86 293 1.0 3.0 0.00 0.00 0.00 62 1016.7
20260506154533 86 155 1.0 4.0 0.00 0.00 0.00 60 1016.7
20260506154016 86 0 0.0 4.0 0.00 0.00 0.00 65 1016.7
20260506153517 86 257 0.0 3.0 0.00 0.00 0.00 62 1016.8
20260506153034 86 241 0.0 2.0 0.00 0.00 0.00 65 1016.8
20260506152514 85 258 1.0 3.0 0.00 0.00 0.00 67 1016.7
20260506152015 85 251 0.0 3.0 0.00 0.00 0.00 65 1016.7
20260506151545 85 259 0.0 3.0 0.00 0.00 0.00 65 1016.7
20260506151015 85 274 1.0 3.0 0.00 0.00 0.00 66 1016.6
20260506150519 84 230 0.0 3.0 0.00 0.00 0.00 66 1016.6
20260506150034 84 217 1.0 3.0 0.00 0.00 0.00 67 1016.5
20260506145516 84 209 0.0 3.0 0.00 0.00 0.00 67 1016.6
20260506145019 83 263 1.0 3.0 0.00 0.00 0.00 70 1016.5
20260506144534 83 269 0.0 3.0 0.00 0.00 0.00 69 1016.5
20260506144025 83 233 1.0 4.0 0.00 0.00 0.00 70 1016.7
20260506143519 83 0 0.0 4.0 0.00 0.00 0.00 69 1016.6
20260506143043 82 218 1.0 3.0 0.00 0.00 0.00 71 1016.5
20260506142514 82 255 0.0 3.0 0.00 0.00 0.00 73 1016.5
20260506142014 83 115 0.0 2.0 0.00 0.00 0.00 72 1016.5
20260506141532 83 257 0.0 2.0 0.00 0.00 0.00 71 1016.5
20260506141014 82 0 0.0 3.0 0.00 0.00 0.00 74 1016.4
20260506140516 81 0 0.0 3.0 0.00 0.00 0.00 74 1016.4
20260506140038 81 0 1.0 3.0 0.00 0.00 0.00 75 1016.4
20260506135515 81 0 0.0 3.0 0.00 0.00 0.00 78 1016.4
20260506135020 80 258 0.0 3.0 0.00 0.00 0.00 80 1016.4
20260506134534 79 267 0.0 3.0 0.00 0.00 0.00 80 1016.4
20260506134017 79 255 0.0 3.0 0.00 0.00 0.00 81 1016.3
20260506133515 79 37 0.0 3.0 0.00 0.00 0.00 81 1016.3
20260506133034 78 266 0.0 3.0 0.00 0.00 0.00 82 1016.2
20260506132520 78 0 0.0 2.0 0.00 0.00 0.00 84 1016.2
20260506132016 77 0 0.0 2.0 0.00 0.00 0.00 85 1016.2
20260506131533 76 0 0.0 3.0 0.00 0.00 0.00 87 1016.1
20260506131017 75 235 0.0 3.0 0.00 0.00 0.00 88 1016.1
20260506130519 75 0 0.0 2.0 0.00 0.00 0.00 91 1016.1
20260506130033 73 0 0.0 2.0 0.00 0.00 0.00 93 1016.2
20260506125516 72 0 0.0 2.0 0.00 0.00 0.00 95 1016.2
20260506125018 70 0 0.0 2.0 0.00 0.00 0.00 98 1016.2
20260506124531 69 0 0.0 0.0 0.00 0.00 0.00 100 1016.2
20260506124015 68 0 0.0 0.0 0.00 0.00 0.00 100 1016.2
20260506123515 66 0 0.0 0.0 0.00 0.00 0.00 100 1016.1
20260506123034 66 0 0.0 0.0 0.00 0.00 0.00 100 1016.1
20260506122514 65 0 0.0 0.0 0.00 0.00 0.00 100 1016.1
20260506122014 65 0 0.0 0.0 0.00 0.00 0.00 100 1016.0
20260506121534 64 0 0.0 0.0 0.00 0.00 0.00 100 1015.9
20260506121015 63 0 0.0 0.0 0.00 0.00 0.00 100 1015.9
20260506120518 63 0 0.0 0.0 0.00 0.00 0.00 100 1016.0
20260506120033 62 0 0.0 0.0 0.00 0.00 0.00 100 1015.9
20260506115515 61 0 0.0 0.0 0.00 0.00 0.00 100 1015.8
20260506115017 61 0 0.0 0.0 0.00 0.00 0.00 100 1015.9
20260506114541 60 0 0.0 0.0 0.00 0.00 0.00 100 1015.8
20260506114014 60 0 0.0 0.0 0.00 0.00 0.00 100 1015.8
20260506113515 59 0 0.0 0.0 0.00 0.00 0.00 100 1015.7
20260506113032 59 0 0.0 0.0 0.00 0.00 0.00 100 1015.7
20260506112516 58 0 0.0 0.0 0.00 0.00 0.00 100 1015.6
20260506112015 58 0 0.0 0.0 0.00 0.00 0.00 100 1015.6
20260506111534 58 0 0.0 0.0 0.00 0.00 0.00 100 1015.5
20260506111015 57 0 0.0 0.0 0.00 0.00 0.00 100 1015.4
20260506110520 57 0 0.0 0.0 0.00 0.00 0.00 100 1015.3
20260506110037 57 0 0.0 0.0 0.00 0.00 0.00 100 1015.4
20260506105515 56 0 0.0 0.0 0.00 0.00 0.00 100 1015.3
20260506105015 56 0 0.0 0.0 0.00 0.00 0.00 100 1015.2
20260506104534 57 0 0.0 0.0 0.00 0.00 0.00 100 1015.1
20260506104013 57 0 0.0 0.0 0.00 0.00 0.00 100 1015.1
20260506103514 57 0 0.0 0.0 0.00 0.00 0.00 100 1015.1
20260506103034 57 0 0.0 0.0 0.00 0.00 0.00 100 1015.0
20260506102514 57 0 0.0 0.0 0.00 0.00 0.00 100 1015.1
20260506102016 57 0 0.0 0.0 0.00 0.00 0.00 100 1015.1
20260506101547 57 0 0.0 0.0 0.00 0.00 0.00 100 1015.0
20260506101016 57 0 0.0 0.0 0.00 0.00 0.00 100 1014.9
20260506100518 57 0 0.0 0.0 0.00 0.00 0.00 100 1014.9
20260506100032 57 0 0.0 0.0 0.00 0.00 0.00 100 1015.0
20260506095515 57 0 0.0 0.0 0.00 0.00 0.00 100 1014.9
20260506095015 56 0 0.0 0.0 0.00 0.00 0.00 100 1014.9
20260506094540 56 0 0.0 0.0 0.00 0.00 0.00 100 1015.0
20260506094017 56 0 0.0 0.0 0.00 0.00 0.00 100 1014.9
20260506093515 57 0 0.0 0.0 0.00 0.00 0.00 100 1015.0
20260506093035 57 0 0.0 0.0 0.00 0.00 0.00 100 1014.9
20260506092516 57 0 0.0 0.0 0.00 0.00 0.00 100 1014.9
20260506092019 57 0 0.0 0.0 0.00 0.00 0.00 100 1014.9
20260506091533 57 0 0.0 0.0 0.00 0.00 0.00 100 1015.0
20260506091014 57 0 0.0 0.0 0.00 0.00 0.00 100 1014.7
20260506090515 56 0 0.0 0.0 0.00 0.00 0.00 100 1014.7
20260506090036 56 0 0.0 0.0 0.00 0.00 0.00 100 1014.7
20260506085515 56 0 0.0 0.0 0.00 0.00 0.00 99 1014.7
20260506085014 57 0 0.0 0.0 0.00 0.00 0.00 100 1014.7
20260506084533 57 0 0.0 0.0 0.00 0.00 0.00 100 1014.6
20260506084016 57 0 0.0 0.0 0.00 0.00 0.00 100 1014.7
20260506083517 57 0 0.0 0.0 0.00 0.00 0.00 99 1014.6
20260506083032 57 0 0.0 0.0 0.00 0.00 0.00 99 1014.6
20260506082516 57 0 0.0 0.0 0.00 0.00 0.00 100 1014.7
20260506082018 57 0 0.0 0.0 0.00 0.00 0.00 99 1014.8
20260506081531 57 0 0.0 0.0 0.00 0.00 0.00 100 1014.9
20260506081018 57 0 0.0 0.0 0.00 0.00 0.00 100 1014.9
20260506080520 56 0 0.0 0.0 0.00 0.00 0.00 99 1014.8
20260506073516 57 0 0.0 0.0 0.00 0.00 0.00 99 1014.6
20260506073041 57 0 0.0 0.0 0.00 0.00 0.00 99 1014.9
20260506072518 57 0 0.0 0.0 0.00 0.00 0.00 99 1014.9
20260506072017 57 0 0.0 0.0 0.00 0.00 0.00 99 1015.0
20260506071533 57 0 0.0 0.0 0.00 0.00 0.00 99 1014.9
20260506071016 57 0 0.0 0.0 0.00 0.00 0.00 99 1014.8
20260506070515 57 0 0.0 0.0 0.00 0.00 0.00 99 1014.9
20260506062017 58 0 0.0 0.0 0.00 0.00 0.00 98 1015.2
20260506061535 58 0 0.0 0.0 0.00 0.00 0.00 98 1015.4
20260506061019 58 0 0.0 0.0 0.00 0.00 0.00 98 1015.4
20260506060514 58 0 0.0 0.0 0.00 0.00 0.00 97 1015.4
20260506051017 59 0 0.0 0.0 0.00 0.00 0.00 97 1015.8
20260506050521 58 0 0.0 0.0 0.00 0.00 0.00 96 1015.8
20260506045014 59 0 0.0 0.0 0.00 0.00 0.00 95 1016.1
20260506044535 59 0 0.0 0.0 0.00 0.00 0.00 95 1016.1
20260506044021 59 0 0.0 0.0 0.00 0.00 0.00 95 1016.2
20260506043516 60 0 0.0 0.0 0.00 0.00 0.00 95 1016.3
20260506043034 60 0 0.0 0.0 0.00 0.00 0.00 95 1016.2
20260506042515 60 0 0.0 0.0 0.00 0.00 0.00 95 1016.1
20260506042022 60 0 0.0 0.0 0.00 0.00 0.00 95 1016.2
20260506041542 60 0 0.0 0.0 0.00 0.00 0.00 94 1016.2
20260506041017 60 0 0.0 0.0 0.00 0.00 0.00 94 1016.1